Tracking 19176 objects as of 25-May-2018
HD Live streaming from Space Station
objects crossing your sky now

OTS 2

Track OTS 2 now!
OTS 2 is classified as:


NORAD ID: 10855
Int'l Code: 1978-044A
Perigee: 36,077.2 km
Apogee: 36,152.7 km
Inclination: 13.7 °
Period: 1,452.5 minutes
Semi major axis: 42485 km
RCS: 1 m2 (large)
Launch date: May 11, 1978
Source: European Space Agency (ESA)
Launch site: AIR FORCE EASTERN TEST RANGE (AFETR)
aabbcc
Your satellite tracking list
Your tracking list is empty




NASA's NSSDC Master Catalog

Two Line Element Set (TLE):
1 10855U 78044A   18145.14216596 -.00000031  00000-0  00000+0 0  9999
2 10855  13.7357 331.5971 0008890 298.8205 284.3044  0.99136848174785
Source of the keplerian elements: AFSPC